KE9DBJ Weather Reports


time (UTC)temp
F
wind
direction
speed
knots
gust
knots
rain 1hr
in
rain 24hr
in
rain mn
in
humidity
%
barometer
mb
20260503195528 68 344 4.3 7.0 0.00 0.00 0.00 35 1015.3
20260503194532 68 308 2.6 6.1 0.00 0.00 0.00 35 1015.5
20260503193519 68 300 4.3 6.1 0.00 0.00 0.00 34 1015.9
20260503192523 68 300 3.5 6.1 0.00 0.00 0.00 33 1016.1
20260503191527 68 280 3.5 7.0 0.00 0.00 0.00 36 1016.3
20260503190531 67 186 3.5 6.1 0.00 0.00 0.00 34 1016.5
20260503185518 67 324 3.5 6.1 0.00 0.00 0.00 34 1016.7
20260503184522 66 34 4.3 6.1 0.00 0.00 0.00 34 1016.8
20260503183526 67 14 3.5 4.3 0.00 0.00 0.00 34 1017.0
20260503182531 67 318 3.5 6.1 0.00 0.00 0.00 33 1017.0
20260503181517 68 304 2.6 5.2 0.00 0.00 0.00 36 1017.1
20260503180521 66 352 3.5 5.2 0.00 0.00 0.00 32 1017.2
20260503175546 66 133 2.6 3.5 0.00 0.00 0.00 34 1017.4
20260503174530 66 80 3.5 6.1 0.00 0.00 0.00 35 1017.5
20260503173516 66 325 3.5 5.2 0.00 0.00 0.00 34 1017.7
20260503172540 65 306 4.3 7.8 0.00 0.00 0.00 32 1018.0
20260503171525 66 295 4.3 6.1 0.00 0.00 0.00 35 1018.1
20260503170529 65 304 3.5 5.2 0.00 0.00 0.00 36 1018.3
20260503150521 61 323 3.5 5.2 0.00 0.00 0.00 42 1019.5
20260503130525 40 43 0.9 1.7 0.00 0.00 0.00 99 1019.9
20260503110522 30 0.0 0.0 0.00 0.00 0.00 99 1019.4
20260503081524 31 0.0 0.0 0.00 0.00 0.00 99 1018.8
20260503080548 31 0.0 0.0 0.00 0.00 0.00 99 1018.7
20260503072547 32 0.0 0.0 0.00 0.00 0.00 99 1018.6
20260503071532 32 0.0 0.0 0.00 0.00 0.00 99 1018.7
20260503070518 32 0.0 0.0 0.00 0.00 0.00 99 1018.7
20260503054516 32 0.0 0.0 0.00 0.00 0.00 99 1019.1
20260503053521 33 0.0 0.0 0.00 0.00 0.00 99 1019.1
20260503052525 33 0.0 0.0 0.00 0.00 0.00 99 1019.1
20260503051529 33 0.0 0.0 0.00 0.00 0.00 99 1019.1
20260503050515 34 0.0 0.0 0.00 0.00 0.00 99 1019.0
20260503045520 34 180 0.9 1.7 0.00 0.00 0.00 99 1018.9
20260503044524 34 0.0 0.0 0.00 0.00 0.00 99 1019.0
20260503043529 34 0.0 0.0 0.00 0.00 0.00 99 1019.0
20260503042515 34 0.0 0.0 0.00 0.00 0.00 99 1019.0
20260503041520 35 0.0 0.0 0.00 0.00 0.00 99 1019.1
20260503040523 35 0.0 0.0 0.00 0.00 0.00 99 1019.1
20260503035528 35 0.0 0.0 0.00 0.00 0.00 98 1019.1
20260503034526 35 0.0 0.0 0.00 0.00 0.00 97 1019.2
20260503033518 35 0.0 0.0 0.00 0.00 0.00 96 1019.1
20260503032524 36 0.0 0.0 0.00 0.00 0.00 95 1019.1
20260503031521 37 0.0 0.0 0.00 0.00 0.00 94 1019.1
20260503030540 37 0.0 0.0 0.00 0.00 0.00 92 1019.0
20260503025518 37 0.0 0.0 0.00 0.00 0.00 91 1018.9
20260503024516 38 0.0 0.0 0.00 0.00 0.00 89 1018.9
20260503023527 38 180 0.9 1.7 0.00 0.00 0.00 86 1018.8
20260503022531 39 180 0.9 1.7 0.00 0.00 0.00 83 1018.6
20260503021517 39 180 0.0 1.7 0.00 0.00 0.00 80 1018.5
20260503020521 40 0.0 0.0 0.00 0.00 0.00 76 1018.4
20260503015526 40 0.0 0.0 0.00 0.00 0.00 73 1018.3
20260503014530 41 243 0.9 1.7 0.00 0.00 0.00 71 1018.1
20260503013517 42 180 0.9 1.7 0.00 0.00 0.00 69 1018.0
20260503012521 43 177 0.9 1.7 0.00 0.00 0.00 65 1017.9
20260503011525 44 180 0.0 1.7 0.00 0.00 0.00 64 1017.7
20260503010529 45 195 0.9 2.6 0.00 0.00 0.00 53 1017.6
20260503005515 46 187 0.9 1.7 0.00 0.00 0.00 54 1017.6
20260503004520 47 189 0.9 1.7 0.00 0.00 0.00 49 1017.6
20260503003525 48 166 1.7 2.6 0.00 0.00 0.00 49 1017.3
20260503002529 50 78 1.7 2.6 0.00 0.00 0.00 43 1017.3
20260503001515 50 310 2.6 4.3 0.00 0.00 0.00 41 1017.2
20260503000539 51 72 2.6 3.5 0.00 0.00 0.00 42 1017.1
20260502235543 52 332 3.5 6.1 0.00 0.00 0.00 40 1017.1
20260502234528 54 309 3.5 7.8 0.00 0.00 0.00 38 1016.9
20260502233532 55 329 4.3 8.7 0.00 0.00 0.00 36 1016.9
20260502232518 56 316 3.5 4.3 0.00 0.00 0.00 36 1016.9
20260502231523 55 349 2.6 5.2 0.00 0.00 0.00 36 1016.9
20260502230527 55 8 4.3 6.1 0.00 0.00 0.00 38 1016.9
20260502225532 55 21 5.2 7.0 0.00 0.00 0.00 37 1016.7
20260502224517 55 22 4.3 5.2 0.00 0.00 0.00 37 1016.8
20260502223522 55 360 3.5 3.5 0.00 0.00 0.00 36 1016.8
20260502222608 56 357 4.3 7.0 0.00 0.00 0.00 36 1016.7
20260502221531 55 178 2.6 5.2 0.00 0.00 0.00 36 1016.7
20260502220537 56 342 2.6 5.2 0.00 0.00 0.00 36 1016.7
20260502215521 56 58 5.2 7.8 0.00 0.00 0.00 36 1016.5
20260502214607 56 342 3.5 4.3 0.00 0.00 0.00 35 1016.5
20260502213524 55 330 3.5 6.1 0.00 0.00 0.00 35 1016.6
20260502212516 56 345 3.5 6.1 0.00 0.00 0.00 36 1016.5
20260502211520 56 309 2.6 7.0 0.00 0.00 0.00 34 1016.5
20260502210519 56 234 3.5 5.2 0.00 0.00 0.00 34 1016.5
20260502205517 56 289 4.3 9.6 0.00 0.00 0.00 35 1016.5
20260502204515 56 1 4.3 7.8 0.00 0.00 0.00 34 1016.6
20260502203519 57 8 5.2 6.1 0.00 0.00 0.00 35 1016.7
20260502202524 55 252 5.2 7.8 0.00 0.00 0.00 35 1016.8
20260502201528 57 327 7.0 11.3 0.00 0.00 0.00 32 1016.8
20260502200532 60 318 3.5 7.0 0.00 0.00 0.00 33 1016.8